Wind at 6 knots

Air temperature 8.0° C
Visibility: greater than 5.4 NM
Dewpoint 4.0° C

Last reported at 2014-Apr-21 10:20 UTC.
Time now 2014-Apr-21 12:13 UTC

Location: N 61°32' E 002°13'.
View on Google Maps.

See reports from other nearby stations

Tides Stations Pressure Air Temp Water Temp Dewpoint Dewpoint depression Visibility Wind Speed Wind Dir Waves Ship positions

  
sailing weather and tide predictions

SNORRE B OILP weather

date/time (UTC)wind fromknots sea level pressurealtimeterstation pressurevisibilityair tempwater tempwave heightnotes
2014-Apr-21 11:20 050 9 5.4 7.0
2014-Apr-21 10:50 070 6 5.4 8.0
2014-Apr-21 10:20 5.4 8.0
2014-Apr-21 09:50 060 7 5.4 8.0
2014-Apr-21 09:20 050 10 5.4 7.0
2014-Apr-21 08:50 050 9 5.4 7.0
2014-Apr-21 08:20 050 7 5.4 7.0
2014-Apr-21 07:50 040 8 5.4 6.0
2014-Apr-21 07:20 050 6 5.4 6.0
2014-Apr-21 06:50 050 6 5.4 6.0
2014-Apr-21 06:20 040 5 5.4 6.0
2014-Apr-21 05:50 030 3 5.4 6.0
2014-Apr-21 05:20 5.4 5.0
2014-Apr-21 04:50 340 3 5.4 5.0
2014-Apr-21 04:20 5.4 5.0
2014-Apr-21 03:50 260 3 5.4 5.0
2014-Apr-21 03:20 230 3 5.4 5.0
2014-Apr-21 02:50 240 3 5.4 5.0
2014-Apr-21 02:20 190 5 5.4 5.0
2014-Apr-21 01:50 200 4 5.4 5.0
2014-Apr-21 01:20 230 4 5.4 5.0
2014-Apr-21 00:50 220 5 5.4 5.0
2014-Apr-21 00:20 190 7 5.4 6.0
2014-Apr-20 23:50 180 7 5.4 6.0
2014-Apr-20 23:20 190 7 5.4 6.0
2014-Apr-20 22:50 220 6 5.4 6.0
2014-Apr-20 22:20 230 6 5.4 6.0
2014-Apr-20 21:50 240 7 5.4 6.0
2014-Apr-20 21:20 230 9 5.4 6.0
2014-Apr-20 20:50 200 9 5.4 6.0
2014-Apr-20 20:20 210 10 5.4 6.0
2014-Apr-20 19:50 220 11 5.4 6.0
2014-Apr-20 19:20 210 10 5.4 6.0
2014-Apr-20 18:50 220 11 5.4 6.0
2014-Apr-20 18:20 230 12 5.4 7.0
2014-Apr-20 17:50 230 12 5.4 7.0
2014-Apr-20 17:20 230 15 5.4 6.0
2014-Apr-20 16:50 220 14 5.4 6.0
2014-Apr-20 16:20 220 15 5.4 6.0
2014-Apr-20 15:50 200 15 5.4 6.0
2014-Apr-20 15:20 210 16 5.4 6.0
2014-Apr-20 14:50 190 14 5.4 7.0
2014-Apr-20 14:20 180 13 5.4 8.0
2014-Apr-20 13:50 190 13 5.4 7.0
2014-Apr-20 13:20 190 15 5.4 8.0
2014-Apr-20 12:50 170 13 5.4 8.0
2014-Apr-20 12:20 170 13 5.4 9.0
2014-Apr-20 11:50 170 14 5.4 9.0
2014-Apr-20 11:20 170 14 5.4 9.0
2014-Apr-20 10:50 160 12 5.4 8.0
2014-Apr-20 10:20 160 14 5.4 8.0
2014-Apr-20 09:50 160 14 5.4 8.0
2014-Apr-20 09:20 160 12 5.4 8.0
2014-Apr-20 08:50 160 13 5.4 8.0
2014-Apr-20 08:20 170 11 5.4 8.0
2014-Apr-20 07:50 170 10 5.4 8.0
2014-Apr-20 07:20 180 10 5.4 7.0
2014-Apr-20 06:50 180 10 5.4 7.0
2014-Apr-20 06:20 200 10 5.4 7.0
2014-Apr-20 05:50 200 10 5.4 7.0
2014-Apr-20 05:20 200 10 5.4 7.0
2014-Apr-20 04:50 200 11 5.4 7.0
2014-Apr-20 04:20 200 13 5.4 7.0
2014-Apr-20 03:50 200 13 5.4 7.0
2014-Apr-20 03:20 190 12 5.4 7.0
2014-Apr-20 02:50 200 10 5.4 7.0
2014-Apr-20 02:20 190 12 5.4 7.0
2014-Apr-20 01:50 190 12 5.4 7.0
2014-Apr-20 01:20 180 12 5.4 7.0
2014-Apr-20 00:50 180 12 5.4 7.0
2014-Apr-20 00:20 190 11 5.4 7.0
2014-Apr-19 23:20 200 10 5.4 7.0
2014-Apr-19 22:50 200 10 5.4 7.0
2014-Apr-19 22:20 200 12 5.4 7.0
2014-Apr-19 20:20 200 15 5.4 7.0
2014-Apr-19 19:50 210 14 5.4 7.0
2014-Apr-19 19:20 210 16 5.4 7.0
2014-Apr-19 18:50 210 16 5.4 7.0
2014-Apr-19 18:20 220 16 5.4 7.0
2014-Apr-19 17:50 210 16 5.4 7.0
2014-Apr-19 17:20 210 17 5.4 8.0
2014-Apr-19 16:50 210 17 5.4 7.0
2014-Apr-19 16:20 200 18 5.4 8.0
2014-Apr-19 15:50 210 20 5.4 8.0
2014-Apr-19 15:20 210 20 5.4 8.0
2014-Apr-19 14:50 210 20 5.4 8.0
2014-Apr-19 14:20 210 20 5.4 8.0
2014-Apr-19 13:50 210 23 5.4 7.0
2014-Apr-19 13:20 200 25 5.4 7.0
2014-Apr-19 12:50 190 26 5.4 7.0
2014-Apr-19 12:20 190 27 5.4 7.0